This demonstration page uses our WeatherBlox Daily Observations layout. Learn more.

Left ArrowRight Arrow

39.29038, -76.61219

Hourly Observations for May 1, 2020

Temp ( °F °C ) Dew Point ( °F °C ) Humidity (%) Winds ( mph kmh ) Pressure ( in mb ) Visibility ( mi km ) Precip ( " mm )
12:54 am 00:54 undefined 58 14.4 56 13.3 93 93 undefined N/A 29.73 1007 N/A N/A
1:54 am 01:54 undefined 57 13.9 53 11.7 87 87 undefined N/A 29.70 1006 N/A N/A
2:54 am 02:54 undefined 57 13.9 51 10.6 81 81 undefined N/A 29.70 1006 N/A N/A
3:54 am 03:54 undefined 56 13.3 51 10.6 84 84 undefined N/A 29.68 1005 N/A N/A
4:54 am 04:54 undefined 56 13.3 50 10 81 81 undefined N/A 29.68 1005 N/A N/A
5:54 am 05:54 undefined 56 13.3 51 10.6 84 84 undefined N/A 29.70 1006 N/A N/A
6:54 am 06:54 undefined 56 13.3 51 10.6 84 84 undefined N/A 29.73 1007 N/A N/A
7:54 am 07:54 undefined 56 13.3 52 11.1 87 87 undefined N/A 29.75 1007 N/A N/A
8:54 am 08:54 undefined 57 13.9 51 10.6 81 81 undefined N/A 29.75 1008 N/A N/A
9:54 am 09:54 undefined 56 13.3 51 10.6 84 84 undefined N/A 29.76 1008 N/A N/A
10:54 am 10:54 undefined 56 13.3 51 10.6 84 84 undefined N/A 29.77 1008 N/A 0.03 0.76
11:54 am 11:54 undefined 60 15.6 53 11.7 78 78 undefined N/A 29.81 1010 N/A 0.04 1.02
12:54 pm 12:54 undefined 64 17.8 50 10 60 60 undefined N/A 29.78 1009 N/A N/A
1:54 pm 13:54 undefined 64 17.8 46 7.8 52 52 undefined N/A 29.73 1007 N/A N/A
2:54 pm 14:54 undefined 64 17.8 45 7.2 50 50 undefined N/A 29.75 1008 N/A N/A
3:54 pm 15:54 undefined 66 18.9 44 6.7 45 45 undefined N/A 29.76 1008 N/A N/A
4:54 pm 16:54 undefined 66 18.9 43 6.1 43 43 undefined N/A 29.76 1008 N/A N/A
5:54 pm 17:54 undefined 65 18.3 43 6.1 45 45 undefined N/A 29.78 1009 N/A N/A
6:54 pm 18:54 undefined 65 18.3 42 5.6 43 43 undefined N/A 29.78 1009 N/A N/A
7:54 pm 19:54 undefined 63 17.2 41 5 45 45 undefined N/A 29.81 1010 N/A N/A
8:54 pm 20:54 undefined 61 16.1 42 5.6 50 50 undefined N/A 29.83 1010 N/A N/A
9:54 pm 21:54 undefined 60 15.6 42 5.6 52 52 undefined N/A 29.86 1011 N/A N/A
10:54 pm 22:54 undefined 59 15 43 6.1 56 56 undefined N/A 29.88 1012 N/A N/A
11:54 pm 23:54 undefined 58 14.4 44 6.7 60 60 undefined N/A 29.91 1013 N/A N/A

Powered by AerisWeather